| time (UTC) | temp F | wind direction | speed MPH | gust MPH | rain 1hr in | rain 24hr in | rain mn in | humidity % | barometer mb |
| 20260509211556 | 63 | 165 | 9.0 | 15.0 | 0.00 | 0.00 | 0.00 | 57 | 1004.5 |
| 20260509210052 | 63 | 228 | 11.0 | 18.0 | 0.00 | 0.00 | 0.00 | 57 | 1004.7 |
| 20260509204552 | 63 | 148 | 8.0 | 20.0 | 0.00 | 0.00 | 0.00 | 58 | 1004.5 |
| 20260509203114 | 63 | 221 | 8.0 | 18.0 | 0.00 | 0.00 | 0.00 | 59 | 1004.7 |
| 20260509201601 | 63 | 210 | 7.0 | 17.0 | 0.00 | 0.00 | 0.00 | 61 | 1004.9 |
| 20260509200056 | 64 | 233 | 11.0 | 22.0 | 0.00 | 0.00 | 0.00 | 62 | 1004.7 |
| 20260509194547 | 64 | 222 | 8.0 | 21.0 | 0.00 | 0.00 | 0.00 | 61 | 1004.8 |
| 20260509193049 | 64 | 232 | 12.0 | 19.0 | 0.00 | 0.00 | 0.00 | 59 | 1005.0 |
| 20260509191555 | 64 | 257 | 11.0 | 17.0 | 0.00 | 0.00 | 0.00 | 59 | 1005.2 |
| 20260509190043 | 64 | 216 | 13.0 | 19.0 | 0.00 | 0.00 | 0.00 | 58 | 1005.2 |
| 20260509184540 | 63 | 217 | 6.0 | 15.0 | 0.00 | 0.00 | 0.00 | 56 | 1005.6 |
| 20260509183038 | 63 | 174 | 3.0 | 16.0 | 0.00 | 0.00 | 0.00 | 57 | 1005.9 |
| 20260509181539 | 62 | 259 | 7.0 | 13.0 | 0.00 | 0.00 | 0.00 | 55 | 1005.9 |
| 20260509180035 | 62 | 202 | 8.0 | 13.0 | 0.00 | 0.00 | 0.00 | 55 | 1005.9 |
| 20260509174534 | 62 | 158 | 5.0 | 15.0 | 0.00 | 0.00 | 0.00 | 56 | 1006.1 |
| 20260509173033 | 62 | 238 | 11.0 | 19.0 | 0.00 | 0.00 | 0.00 | 59 | 1006.3 |
| 20260509171533 | 62 | 131 | 6.0 | 14.0 | 0.00 | 0.00 | 0.00 | 55 | 1006.3 |
| 20260509170028 | 61 | 163 | 6.0 | 11.0 | 0.00 | 0.00 | 0.00 | 57 | 1006.6 |
| 20260509164525 | 61 | 198 | 4.0 | 12.0 | 0.00 | 0.00 | 0.00 | 56 | 1006.9 |
| 20260509163024 | 61 | 133 | 4.0 | 10.0 | 0.00 | 0.00 | 0.00 | 56 | 1006.9 |
| 20260509161523 | 61 | 187 | 1.0 | 8.0 | 0.00 | 0.00 | 0.00 | 54 | 1007.0 |
| 20260509160024 | 60 | 238 | 4.0 | 8.0 | 0.00 | 0.00 | 0.00 | 56 | 1007.5 |
| 20260509154522 | 62 | 193 | 0.0 | 11.0 | 0.00 | 0.00 | 0.00 | 49 | 1007.8 |
| 20260509153017 | 61 | 207 | 5.0 | 15.0 | 0.00 | 0.00 | 0.00 | 49 | 1007.9 |
| 20260509151515 | 61 | 252 | 4.0 | 13.0 | 0.00 | 0.00 | 0.00 | 44 | 1008.1 |
| 20260509150013 | 61 | 238 | 5.0 | 9.0 | 0.00 | 0.00 | 0.00 | 50 | 1008.2 |
| 20260509144509 | 60 | 133 | 6.0 | 11.0 | 0.00 | 0.00 | 0.00 | 51 | 1008.3 |
| 20260509143008 | 59 | 167 | 3.0 | 9.0 | 0.00 | 0.00 | 0.00 | 54 | 1008.5 |
| 20260509141508 | 58 | 103 | 3.0 | 8.0 | 0.00 | 0.00 | 0.00 | 53 | 1008.5 |
| 20260509140001 | 57 | 111 | 5.0 | 10.0 | 0.00 | 0.00 | 0.00 | 51 | 1008.7 |
| 20260509134559 | 56 | 111 | 8.0 | 13.0 | 0.00 | 0.00 | 0.00 | 52 | 1008.8 |
| 20260509133102 | 55 | 104 | 5.0 | 7.0 | 0.00 | 0.00 | 0.00 | 54 | 1008.9 |
| 20260509131554 | 54 | 172 | 3.0 | 9.0 | 0.00 | 0.00 | 0.00 | 56 | 1009.1 |
| 20260509130100 | 53 | 169 | 6.0 | 12.0 | 0.00 | 0.00 | 0.00 | 55 | 1009.1 |
| 20260509124549 | 53 | 141 | 6.0 | 15.0 | 0.00 | 0.00 | 0.00 | 55 | 1009.0 |
| 20260509123050 | 52 | 153 | 5.0 | 10.0 | 0.00 | 0.00 | 0.00 | 57 | 1009.3 |
| 20260509121541 | 50 | 135 | 7.0 | 10.0 | 0.00 | 0.00 | 0.00 | 58 | 1009.4 |
| 20260509120038 | 50 | 165 | 5.0 | 9.0 | 0.00 | 0.00 | 0.00 | 58 | 1009.6 |
| 20260509114538 | 49 | 144 | 1.0 | 9.0 | 0.00 | 0.00 | 0.00 | 60 | 1009.6 |
| 20260509113031 | 47 | 111 | 2.0 | 10.0 | 0.00 | 0.00 | 0.00 | 61 | 1009.5 |
| 20260509111527 | 46 | 136 | 2.0 | 8.0 | 0.00 | 0.00 | 0.00 | 64 | 1009.6 |
| 20260509110025 | 44 | 143 | 3.0 | 7.0 | 0.00 | 0.00 | 0.00 | 66 | 1009.5 |
| 20260509104520 | 42 | 114 | 3.0 | 7.0 | 0.00 | 0.00 | 0.00 | 69 | 1009.3 |
| 20260509103019 | 41 | 102 | 1.0 | 5.0 | 0.00 | 0.00 | 0.00 | 71 | 1009.1 |
| 20260509101519 | 39 | 119 | 1.0 | 4.0 | 0.00 | 0.00 | 0.00 | 72 | 1009.1 |
| 20260509100022 | 39 | 128 | 3.0 | 5.0 | 0.00 | 0.00 | 0.00 | 72 | 1009.1 |
| 20260509094515 | 39 | 133 | 2.0 | 7.0 | 0.00 | 0.00 | 0.00 | 71 | 1009.1 |
| 20260509093013 | 40 | 160 | 4.0 | 9.0 | 0.00 | 0.00 | 0.00 | 69 | 1009.2 |
| 20260509091510 | 40 | 157 | 5.0 | 8.0 | 0.00 | 0.00 | 0.00 | 68 | 1009.4 |
| 20260509090008 | 40 | 147 | 4.0 | 7.0 | 0.00 | 0.00 | 0.00 | 68 | 1009.6 |
| 20260509084512 | 41 | 146 | 4.0 | 6.0 | 0.00 | 0.00 | 0.00 | 67 | 1009.6 |
| 20260509083015 | 40 | 160 | 4.0 | 8.0 | 0.00 | 0.00 | 0.00 | 67 | 1009.7 |
| 20260509081510 | 41 | 157 | 4.0 | 6.0 | 0.00 | 0.00 | 0.00 | 66 | 1009.8 |
| 20260509080000 | 41 | 150 | 2.0 | 6.0 | 0.00 | 0.00 | 0.00 | 64 | 1009.8 |
| 20260509074559 | 42 | 152 | 4.0 | 7.0 | 0.00 | 0.00 | 0.00 | 63 | 1009.9 |
| 20260509073059 | 42 | 166 | 5.0 | 10.0 | 0.00 | 0.00 | 0.00 | 63 | 1009.9 |
| 20260509071600 | 42 | 162 | 5.0 | 9.0 | 0.00 | 0.00 | 0.00 | 62 | 1009.9 |
| 20260509064555 | 42 | 157 | 4.0 | 8.0 | 0.00 | 0.00 | 0.00 | 62 | 1010.1 |
| 20260509063053 | 42 | 172 | 4.0 | 9.0 | 0.00 | 0.00 | 0.00 | 62 | 1010.2 |
| 20260509061611 | 42 | 151 | 5.0 | 9.0 | 0.00 | 0.00 | 0.00 | 62 | 1010.3 |
| 20260509060106 | 42 | 151 | 3.0 | 6.0 | 0.00 | 0.00 | 0.00 | 62 | 1010.4 |
| 20260509054552 | 42 | 191 | 2.0 | 6.0 | 0.00 | 0.00 | 0.00 | 62 | 1010.7 |
| 20260509053047 | 42 | 170 | 3.0 | 8.0 | 0.00 | 0.00 | 0.00 | 61 | 1010.8 |
| 20260509051546 | 42 | 164 | 4.0 | 7.0 | 0.00 | 0.00 | 0.00 | 61 | 1010.7 |
| 20260509050101 | 42 | 169 | 3.0 | 7.0 | 0.00 | 0.00 | 0.00 | 61 | 1010.8 |
| 20260509044555 | 42 | 187 | 4.0 | 8.0 | 0.00 | 0.00 | 0.00 | 62 | 1011.0 |
| 20260509043040 | 42 | 192 | 4.0 | 7.0 | 0.00 | 0.00 | 0.00 | 64 | 1010.9 |
| 20260509041537 | 42 | 172 | 3.0 | 7.0 | 0.00 | 0.00 | 0.00 | 64 | 1011.0 |
| 20260509040033 | 42 | 181 | 4.0 | 8.0 | 0.00 | 0.00 | 0.00 | 65 | 1010.9 |
| 20260509034533 | 42 | 251 | 3.0 | 7.0 | 0.00 | 0.00 | 0.00 | 67 | 1010.9 |
| 20260509033032 | 42 | 219 | 2.0 | 5.0 | 0.00 | 0.00 | 0.00 | 70 | 1010.8 |
| 20260509031532 | 42 | 155 | 3.0 | 5.0 | 0.00 | 0.00 | 0.00 | 70 | 1011.0 |
| 20260509030037 | 43 | 158 | 3.0 | 7.0 | 0.00 | 0.00 | 0.00 | 70 | 1011.0 |
| 20260509024531 | 43 | 179 | 3.0 | 7.0 | 0.00 | 0.00 | 0.00 | 71 | 1011.2 |
| 20260509023037 | 43 | 178 | 3.0 | 7.0 | 0.00 | 0.00 | 0.00 | 71 | 1011.3 |
| 20260509021530 | 43 | 180 | 2.0 | 5.0 | 0.00 | 0.00 | 0.00 | 71 | 1011.3 |
| 20260509020029 | 43 | 202 | 2.0 | 5.0 | 0.00 | 0.00 | 0.00 | 71 | 1011.3 |
| 20260509014529 | 43 | 203 | 2.0 | 6.0 | 0.00 | 0.00 | 0.00 | 71 | 1011.3 |
| 20260509013031 | 43 | 169 | 3.0 | 5.0 | 0.00 | 0.00 | 0.00 | 70 | 1011.2 |
| 20260509011528 | 43 | 225 | 1.0 | 3.0 | 0.00 | 0.00 | 0.00 | 68 | 1011.1 |
| 20260509010027 | 44 | 198 | 2.0 | 4.0 | 0.00 | 0.00 | 0.00 | 66 | 1010.8 |
| 20260509004535 | 45 | 206 | 3.0 | 5.0 | 0.00 | 0.00 | 0.00 | 66 | 1010.7 |
| 20260509003025 | 46 | 226 | 3.0 | 7.0 | 0.00 | 0.00 | 0.00 | 65 | 1010.7 |
| 20260509001525 | 46 | 224 | 4.0 | 8.0 | 0.00 | 0.00 | 0.00 | 64 | 1010.6 |
| 20260509000034 | 48 | 212 | 2.0 | 5.0 | 0.00 | 0.00 | 0.00 | 61 | 1010.5 |
| 20260508234527 | 49 | 217 | 4.0 | 12.0 | 0.00 | 0.00 | 0.00 | 54 | 1010.4 |
| 20260508233023 | 50 | 238 | 8.0 | 13.0 | 0.00 | 0.00 | 0.00 | 52 | 1010.4 |
| 20260508231523 | 50 | 228 | 6.0 | 14.0 | 0.00 | 0.00 | 0.00 | 53 | 1010.3 |
| 20260508230022 | 50 | 229 | 10.0 | 18.0 | 0.00 | 0.00 | 0.00 | 51 | 1010.4 |
| 20260508224521 | 51 | 234 | 7.0 | 16.0 | 0.00 | 0.00 | 0.00 | 52 | 1010.4 |
| 20260508223024 | 50 | 236 | 8.0 | 12.0 | 0.00 | 0.00 | 0.00 | 51 | 1010.5 |
| 20260508221520 | 51 | 213 | 8.0 | 20.0 | 0.00 | 0.00 | 0.00 | 48 | 1010.5 |
| 20260508220019 | 51 | 217 | 9.0 | 17.0 | 0.00 | 0.00 | 0.00 | 47 | 1010.5 |
| 20260508214518 | 51 | 217 | 13.0 | 19.0 | 0.00 | 0.00 | 0.00 | 47 | 1010.4 |
| 20260508213022 | 51 | 236 | 11.0 | 19.0 | 0.00 | 0.00 | 0.00 | 47 | 1010.5 |